Weather History for KCDR - April, 2013

Change the Weather History Date:

Saturday, April 27, 2013

  Actual Average Record
Temperature  
Mean Temperature 57 °F 49 °F  
Max Temperature 78 °F 64 °F 88 °F (1952)
Min Temperature 36 °F 34 °F 19 °F (1994)
Degree Days  
Heating Degree Days 8 16  
Month to date heating degree days 747 559  
Since 1 July heating degree days 6516 6716  
Cooling Degree Days 0 0  
Month to date cooling degree days 0 0  
Year to date cooling degree days 0 0  
Growing Degree Days 8 (Base 50)    
Moisture  
Dew Point 29 °F    
Average Humidity 42    
Maximum Humidity 70    
Minimum Humidity 14    
Precipitation  
Precipitation 0.00 in 0.09 in 1.44 in (1975)
Month to date precipitation 0.78 1.71  
Year to date precipitation 2.32 3.91  
Sea Level Pressure  
Sea Level Pressure 29.97 in    
Wind  
Wind Speed 8 mph (WSW)    
Max Wind Speed 21 mph    
Max Gust Speed 26 mph    
Visibility 10 miles    
Events      
T = Trace of Precipitation, MM = Missing Value Source: NWS Daily Summary

Daily Weather History Graph

Daily Weather History Graph

Search for Another Location

Airport or City:

Trip Planner

Search our weather history database for the weather conditions in past years. The results will help you decide how hot, cold, wet, or windy it might be!

Date:

Astronomy

Apr. 27, 2013 Rise Set
Actual Time 5:51 AM MDT 7:48 PM MDT
Civil Twilight 5:21 AM MDT 8:19 PM MDT
Nautical Twilight 4:43 AM MDT 8:57 PM MDT
Astronomical Twilight 4:03 AM MDT 9:37 PM MDT
Moon 10:23 PM MDT (4/27) 7:10 AM MDT (4/27)
Length of Visible Light 14h 58m
Length of Day
13h 57m
Waning Gibbous, 95% of the Moon is Illuminated
Apr 27
Waning Gibbous
May 2
Last Quarter
May 9
New
May 17
First Quarter
May 24
Full

Hourly Weather History & Observations

Time (MDT) Temp. Windchill Dew Point Humidity Pressure Visibility Wind Dir Wind Speed Gust Speed Precip Events Conditions
12:53 AM 53.1 °F - 28.0 °F 38% 30.09 in 10.0 mi SW 6.9 mph - N/A   Clear
1:53 AM 51.1 °F - 28.0 °F 41% 30.08 in 10.0 mi SW 8.1 mph - N/A   Clear
2:53 AM 48.0 °F - 27.0 °F 44% 30.07 in 10.0 mi Calm Calm - N/A   Clear
3:53 AM 42.1 °F 37.7 °F 28.0 °F 58% 30.07 in 10.0 mi SW 6.9 mph - N/A   Clear
4:53 AM 48.0 °F - 28.0 °F 46% 30.03 in 10.0 mi South 9.2 mph - N/A   Clear
5:53 AM 37.9 °F - 28.0 °F 68% 30.06 in 10.0 mi Calm Calm - N/A   Clear
6:53 AM 42.1 °F 40.2 °F 30.9 °F 65% 30.06 in 10.0 mi SSW 3.5 mph - N/A   Clear
7:53 AM 51.1 °F - 32.0 °F 48% 30.07 in 10.0 mi WSW 6.9 mph - N/A   Clear
8:53 AM 57.9 °F - 32.0 °F 37% 30.06 in 10.0 mi WSW 10.4 mph - N/A   Clear
9:53 AM 64.9 °F - 30.9 °F 28% 30.05 in 10.0 mi WSW 10.4 mph - N/A   Clear
10:53 AM 73.0 °F - 28.9 °F 20% 30.02 in 10.0 mi NW 17.3 mph 21.9 mph N/A   Clear
11:53 AM 75.0 °F - 24.1 °F 15% 29.99 in 10.0 mi NW 11.5 mph 18.4 mph N/A   Clear
12:53 PM 75.9 °F - 25.0 °F 15% 29.97 in 10.0 mi WNW 11.5 mph 16.1 mph N/A   Clear
1:53 PM 75.9 °F - 25.0 °F 15% 29.94 in 10.0 mi West 6.9 mph - N/A   Clear
2:53 PM 77.0 °F - 24.1 °F 14% 29.93 in 10.0 mi WNW 10.4 mph 17.3 mph N/A   Clear
3:53 PM 78.1 °F - 28.9 °F 17% 29.91 in 10.0 mi West 12.7 mph 21.9 mph N/A   Clear
4:53 PM 77.0 °F - 27.0 °F 16% 29.88 in 10.0 mi West 12.7 mph 19.6 mph N/A   Clear
5:53 PM 77.0 °F - 27.0 °F 16% 29.89 in 10.0 mi WNW 4.6 mph - N/A   Clear
6:53 PM 73.9 °F - 28.0 °F 18% 29.88 in 10.0 mi Calm Calm - N/A   Clear
7:53 PM 66.0 °F - 33.1 °F 29% 29.86 in 8.0 mi SSE 4.6 mph - N/A   Clear
8:53 PM 57.0 °F - 36.0 °F 45% 29.87 in 10.0 mi ESE 3.5 mph - N/A   Clear
9:53 PM 55.0 °F - 35.1 °F 47% 29.84 in 9.0 mi SSE 12.7 mph - N/A   Clear
10:53 PM 51.1 °F - 35.1 °F 54% 29.83 in 10.0 mi WSW 4.6 mph - N/A   Clear
11:53 PM 53.1 °F - 34.0 °F 48% 29.81 in 10.0 mi West 4.6 mph - N/A   Clear